Regional Weather Roundup
Issued by NWS Glasgow, MT

Home | Current Version | Previous Version | Text Only | Print | Product List | Glossary On
Versions: 1 2 3 4 5 6 7 8 9 10 11 12 13 14 15 16 17 18 19 20 21 22 23 24 25 26 27 28 29 30 31 32 33 34 35 36 37 38 39 40 41 42 43 44 45 46 47 48 49 50
000
ASUS45 KGGW 030115
RWRGGW
HOURLY REGIONAL WEATHER ROUNDUP FOR NORTHEAST MONTANA
NATIONAL WEATHER SERVICE GLASGOW MONTANA
700 PM MDT SUN AUG 02 2015

NOTE: "FAIR" INDICATES FEW OR NO CLOUDS BELOW 12,000 FEET WITH NO
SIGNIFICANT WEATHER AND/OR OBSTRUCTIONS TO VISISBILITY.

NORTHEAST MONTANA


CITY           SKY/WX    TMP DP  RH WIND       PRES   REMARKS
GLASGOW        SUNNY     82  47  29 N7        29.97F
PLENTYWOOD       N/A     74  44  34 N9G18       N/A
WOLF POINT     SUNNY     83  45  26 N12       29.97F
JORDAN           N/A     83  48  29 NE5       29.98F
WINNETT          N/A     85  39  19 NE3G12      N/A
SIDNEY         SUNNY    N/A N/A N/A N10       29.96S
GLENDIVE         N/A    N/A N/A N/A MISG        N/A
MALTA            N/A     83  51  33 NE3         N/A
SCOBEY           N/A     74  45  35 N8        30.01

FORT PECK REPORTS


CITY           SKY/WX    TMP DP  RH WIND       PRES   REMARKS
FORT PECK        N/A     84  48  28 NE6         N/A
THE PINES        N/A     83  44  25 E6          N/A

SOUTHEAST MONTANA


CITY           SKY/WX    TMP DP  RH WIND       PRES   REMARKS
BILLINGS       PTSUNNY   85  41  21 NE10      29.99F
MILES CITY     SUNNY     84  49  29 E13       29.96F
BAKER          SUNNY     81  48  31 NE14      30.00F
LIVINGSTON     SUNNY     88  38  17 E10       29.99F

CENTRAL MONTANA


CITY           SKY/WX    TMP DP  RH WIND       PRES   REMARKS
HAVRE          SUNNY     81  52  36 E17       29.95S
LEWISTOWN        N/A     83  47  28 E10       30.03F
GREAT FALLS    FAIR      86  33  15 E9        29.95F
CUT BANK       SUNNY     84  42  22 SE10      29.97F
HELENA         SUNNY     91  39  16 E6        29.93F
BUTTE          SUNNY     86  28  12 SE9       30.05F
BOZEMAN        MOSUNNY   86  39  19 CALM      29.99F

WESTERN MONTANA


CITY           SKY/WX    TMP DP  RH WIND       PRES   REMARKS
MISSOULA       SUNNY     94  23   8 VRB3      29.88F
KALISPELL      NOT AVBL

NORTH DAKOTA


CITY           SKY/WX    TMP DP  RH WIND       PRES   REMARKS
WILLISTON      SUNNY     79  45  29 N9        29.97S
DICKINSON      SUNNY     77  47  34 N10       29.97S
MINOT          SUNNY     75  47  36 NW15      29.92S
BISMARCK       SUNNY     76  51  41 N13       29.94R

SOUTHERN SASKATCHEWAN


CITY           SKY/WX    TMP DP  RH WIND       PRES   REMARKS
REGINA         MOSUNNY   73  50  43 NW10      29.99S
ESTEVAN        MOSUNNY   73  48  40 N13       29.97S
SWIFT CURRENT  PTSUNNY   73  50  43 N3        30.02F




USA.gov is the U.S. government's official web portal to all federal, state and local government web resources and services.